CW2931 Weather Reports


Display with metric or nautical units.
time (UTC)temp
F
wind
direction
speed
MPH
gust
MPH
rain 1hr
in
rain 24hr
in
rain mn
in
humidity
%
barometer
mb
20260508195605 63 174 0.0 0.0 0.00 0.00 0.00 57 1007.7
20260508195105 63 208 0.0 0.0 0.00 0.00 0.00 58 1007.7
20260508194604 63 175 0.0 0.0 0.00 0.00 0.00 58 1007.8
20260508194104 63 154 0.0 0.0 0.00 0.00 0.00 58 1007.9
20260508193604 64 188 0.0 0.0 0.00 0.00 0.00 57 1008.0
20260508193104 64 107 0.0 0.0 0.00 0.00 0.00 58 1008.1
20260508192604 63 142 0.0 0.0 0.00 0.00 0.00 60 1008.2
20260508192104 63 148 0.0 0.0 0.00 0.00 0.00 60 1008.3
20260508191104 62 176 0.0 0.0 0.00 0.00 0.00 56 1008.7
20260508190604 63 151 0.0 0.0 0.00 0.00 0.00 58 1008.5
20260508185604 61 155 0.0 0.0 0.00 0.00 0.00 55 1008.8
20260508185104 62 171 0.0 0.0 0.00 0.00 0.00 56 1008.8
20260508184604 61 113 0.0 0.0 0.00 0.00 0.00 55 1008.8
20260508184104 62 142 0.0 0.0 0.00 0.00 0.00 54 1008.8
20260508183604 62 177 0.0 0.0 0.00 0.00 0.00 55 1008.8
20260508183104 62 212 0.0 0.0 0.00 0.00 0.00 54 1008.9
20260508182604 62 128 0.0 0.0 0.00 0.00 0.00 55 1008.8
20260508182104 62 148 0.0 0.0 0.00 0.00 0.00 54 1008.8
20260508181604 62 155 0.0 0.0 0.00 0.00 0.00 52 1008.8
20260508180604 62 219 0.0 0.0 0.00 0.00 0.00 54 1009.0
20260508180104 62 163 0.0 0.0 0.00 0.00 0.00 54 1009.1
20260508175603 61 117 0.0 0.0 0.00 0.00 0.00 55 1009.2
20260508175104 61 56 0.0 0.0 0.00 0.00 0.00 53 1009.3
20260508174604 61 62 0.0 0.0 0.00 0.00 0.00 52 1009.4
20260508174104 61 173 0.0 0.0 0.00 0.00 0.00 52 1009.6
20260508173604 61 125 0.0 0.0 0.00 0.00 0.00 54 1009.7
20260508173104 61 170 0.0 0.0 0.00 0.00 0.00 52 1009.8
20260508172604 62 169 0.0 0.0 0.00 0.00 0.00 51 1009.8
20260508172104 62 156 0.0 0.0 0.00 0.00 0.00 47 1009.8
20260508171604 64 169 0.0 0.0 0.00 0.00 0.00 44 1009.8
20260508171104 64 184 0.0 0.0 0.00 0.00 0.00 44 1009.9
20260508170604 63 252 0.0 0.0 0.00 0.00 0.00 43 1009.9
20260508170104 63 169 0.0 0.0 0.00 0.00 0.00 44 1009.9
20260508165604 63 246 0.0 0.0 0.00 0.00 0.00 43 1010.2
20260508165104 63 273 0.0 0.0 0.00 0.00 0.00 42 1010.3
20260508164604 62 228 0.0 0.0 0.00 0.00 0.00 42 1010.4
20260508164104 63 209 0.0 0.0 0.00 0.00 0.00 43 1010.4
20260508163604 62 229 0.0 0.0 0.00 0.00 0.00 44 1010.5
20260508163104 62 179 0.0 0.0 0.00 0.00 0.00 45 1010.6
20260508162604 62 169 0.0 0.0 0.00 0.00 0.00 45 1010.6
20260508161604 61 219 0.0 0.0 0.00 0.00 0.00 45 1010.8
20260508161104 61 219 0.0 0.0 0.00 0.00 0.00 46 1010.8
20260508160604 61 249 0.0 0.0 0.00 0.00 0.00 46 1010.8
20260508160104 61 237 0.0 0.0 0.00 0.00 0.00 46 1010.9
20260508155604 60 167 0.0 0.0 0.00 0.00 0.00 47 1010.9
20260508155104 60 188 0.0 0.0 0.00 0.00 0.00 47 1010.9
20260508154604 60 357 0.0 0.0 0.00 0.00 0.00 47 1011.0
20260508154104 60 338 0.0 0.0 0.00 0.00 0.00 48 1010.9
20260508153604 60 6 0.0 0.0 0.00 0.00 0.00 48 1010.9
20260508153104 60 313 0.0 0.0 0.00 0.00 0.00 48 1011.0
20260508152604 60 247 0.0 0.0 0.00 0.00 0.00 49 1011.0
20260508152104 59 312 0.0 0.0 0.00 0.00 0.00 49 1011.0
20260508151604 59 311 0.0 0.0 0.00 0.00 0.00 52 1011.0
20260508151104 59 347 0.0 0.0 0.00 0.00 0.00 51 1011.0
20260508150604 59 248 0.0 0.0 0.00 0.00 0.00 51 1011.0
20260508150104 59 93 0.0 0.0 0.00 0.00 0.00 52 1011.1
20260508145604 59 89 0.0 0.0 0.00 0.00 0.00 53 1011.1
20260508145104 59 91 0.0 0.0 0.00 0.00 0.00 56 1011.3
20260508144604 58 355 0.0 0.0 0.00 0.00 0.00 57 1011.3
20260508144104 58 261 0.0 0.0 0.00 0.00 0.00 58 1011.3
20260508143603 57 113 0.0 0.0 0.00 0.00 0.00 58 1011.4
20260508143104 57 149 0.0 0.0 0.00 0.00 0.00 59 1011.5
20260508142604 57 251 0.0 0.0 0.00 0.00 0.00 59 1011.5
20260508142104 57 269 0.0 0.0 0.00 0.00 0.00 60 1011.5
20260508141604 56 269 0.0 0.0 0.00 0.00 0.00 61 1011.5
20260508141103 56 239 0.0 0.0 0.00 0.00 0.00 63 1011.5
20260508140604 56 265 0.0 0.0 0.00 0.00 0.00 65 1011.5
20260508140103 55 245 0.0 0.0 0.00 0.00 0.00 66 1011.5
20260508135604 55 331 0.0 0.0 0.00 0.00 0.00 67 1011.6
20260508135104 55 330 0.0 0.0 0.00 0.00 0.00 67 1011.6
20260508134603 54 323 0.0 0.0 0.00 0.00 0.00 68 1011.6
20260508134104 54 233 0.0 0.0 0.00 0.00 0.00 69 1011.6
20260508133604 54 238 0.0 0.0 0.00 0.00 0.00 70 1011.6
20260508133104 54 256 0.0 0.0 0.00 0.00 0.00 72 1011.6
20260508132604 53 253 0.0 0.0 0.00 0.00 0.00 73 1011.6
20260508132104 53 251 0.0 0.0 0.00 0.00 0.00 74 1011.6
20260508131604 53 244 0.0 0.0 0.00 0.00 0.00 75 1011.6
20260508131103 52 199 0.0 0.0 0.00 0.00 0.00 76 1011.6
20260508130606 52 202 0.0 0.0 0.00 0.00 0.00 76 1011.6
20260508125603 51 205 0.0 0.0 0.00 0.00 0.00 79 1011.6
20260508124604 50 204 0.0 0.0 0.00 0.00 0.00 81 1011.6
20260508124104 50 217 0.0 0.0 0.00 0.00 0.00 81 1011.6
20260508123604 50 209 0.0 0.0 0.00 0.00 0.00 82 1011.5
20260508123104 49 223 0.0 0.0 0.00 0.00 0.00 83 1011.5
20260508122604 49 202 0.0 0.0 0.00 0.00 0.00 83 1011.5
20260508122103 48 202 0.0 0.0 0.00 0.00 0.00 84 1011.5
20260508121603 48 247 0.0 0.0 0.00 0.00 0.00 84 1011.5
20260508121103 48 251 0.0 0.0 0.00 0.00 0.00 85 1011.5
20260508120604 47 254 0.0 0.0 0.00 0.00 0.00 85 1011.5
20260508115604 46 252 0.0 0.0 0.00 0.00 0.00 85 1011.5
20260508115104 46 245 0.0 0.0 0.00 0.00 0.00 84 1011.4
20260508114603 45 243 0.0 0.0 0.00 0.00 0.00 84 1011.3
20260508113604 44 246 0.0 0.0 0.00 0.00 0.00 83 1011.0
20260508113104 44 246 0.0 0.0 0.00 0.00 0.00 82 1011.0
20260508112603 44 244 0.0 0.0 0.00 0.00 0.00 82 1011.0
20260508111604 43 238 0.0 0.0 0.00 0.00 0.00 81 1011.0
20260508111104 43 242 0.0 0.0 0.00 0.00 0.00 81 1010.9
20260508110104 44 243 0.0 0.0 0.00 0.00 0.00 81 1010.8
20260508105104 44 244 0.0 0.0 0.00 0.00 0.00 81 1010.8
20260508104603 44 244 0.0 0.0 0.00 0.00 0.00 81 1010.8
20260508104103 44 244 0.0 0.0 0.00 0.00 0.00 80 1010.7
20260508103604 44 244 0.0 0.0 0.00 0.00 0.00 80 1010.7
20260508102104 44 244 0.0 0.0 0.00 0.00 0.00 80 1010.6
20260508101603 44 244 0.0 0.0 0.00 0.00 0.00 79 1010.7
20260508101104 44 244 0.0 0.0 0.00 0.00 0.00 79 1010.7
20260508100603 44 244 0.0 0.0 0.00 0.00 0.00 79 1010.5
20260508095104 45 244 0.0 0.0 0.00 0.00 0.00 78 1010.6
20260508094604 45 244 0.0 0.0 0.00 0.00 0.00 78 1010.6
20260508094103 45 244 0.0 0.0 0.00 0.00 0.00 78 1010.6
20260508093604 45 243 0.0 0.0 0.00 0.00 0.00 78 1010.6
20260508092603 46 242 0.0 0.0 0.00 0.00 0.00 77 1010.7
20260508092103 46 240 0.0 0.0 0.00 0.00 0.00 77 1010.7
20260508091604 46 240 0.0 0.0 0.00 0.00 0.00 77 1010.6
20260508091104 46 240 0.0 0.0 0.00 0.00 0.00 76 1010.6
20260508090604 46 240 0.0 0.0 0.00 0.00 0.00 76 1010.6
20260508090104 47 240 0.0 0.0 0.00 0.00 0.00 76 1010.6
20260508085605 47 240 0.0 0.0 0.00 0.00 0.00 76 1010.7
20260508085104 47 240 0.0 0.0 0.00 0.00 0.00 76 1010.5
20260508084604 47 239 0.0 0.0 0.00 0.00 0.00 76 1010.6
20260508084104 47 240 0.0 0.0 0.00 0.00 0.00 76 1010.5
20260508083603 47 240 0.0 0.0 0.00 0.00 0.00 76 1010.6
20260508083104 48 240 0.0 0.0 0.00 0.00 0.00 77 1010.7
20260508082604 48 241 0.0 0.0 0.00 0.00 0.00 77 1010.7
20260508082103 48 244 0.0 0.0 0.00 0.00 0.00 77 1010.6
20260508081604 48 245 0.0 0.0 0.00 0.00 0.00 76 1010.5
20260508081104 48 257 0.0 0.0 0.00 0.00 0.00 76 1010.6
20260508080104 48 256 0.0 0.0 0.00 0.00 0.00 76 1010.9
20260508075604 48 256 0.0 0.0 0.00 0.00 0.00 76 1010.9
20260508075104 48 256 0.0 0.0 0.00 0.00 0.00 76 1010.8
20260508074103 48 255 0.0 0.0 0.00 0.00 0.00 76 1010.8
20260508073604 48 243 0.0 0.0 0.00 0.00 0.00 76 1010.9
20260508073103 47 267 0.0 0.0 0.00 0.00 0.00 76 1011.0
20260508072603 47 252 0.0 0.0 0.00 0.00 0.00 75 1011.0
20260508072103 47 248 0.0 0.0 0.00 0.00 0.00 75 1011.0
20260508071603 47 226 0.0 0.0 0.00 0.00 0.00 74 1011.0
20260508071103 47 215 0.0 0.0 0.00 0.00 0.00 74 1011.0
20260508070104 47 247 0.0 0.0 0.00 0.00 0.00 72 1011.0
20260508065603 47 248 0.0 0.0 0.00 0.00 0.00 71 1010.9
20260508065104 47 248 0.0 0.0 0.00 0.00 0.00 70 1011.0
20260508064604 47 248 0.0 0.0 0.00 0.00 0.00 70 1011.0
20260508064103 47 248 0.0 0.0 0.00 0.00 0.00 70 1011.0
20260508063604 47 248 0.0 0.0 0.00 0.00 0.00 70 1011.0
20260508063104 48 248 0.0 0.0 0.00 0.00 0.00 70 1011.0
20260508062604 48 249 0.0 0.0 0.00 0.00 0.00 70 1011.0
20260508062104 48 249 0.0 0.0 0.00 0.00 0.00 69 1010.9
20260508061603 48 250 0.0 0.0 0.00 0.00 0.00 69 1010.9
20260508061103 48 250 0.0 0.0 0.00 0.00 0.00 69 1011.0
20260508060604 48 249 0.0 0.0 0.00 0.00 0.00 68 1011.0
20260508055606 49 250 0.0 0.0 0.00 0.00 0.00 68 1011.0
20260508054105 49 251 0.0 0.0 0.00 0.00 0.00 66 1011.1
20260508053606 49 251 0.0 0.0 0.00 0.00 0.00 66 1011.2
20260508053105 50 252 0.0 0.0 0.00 0.00 0.00 66 1011.2
20260508052106 50 253 0.0 0.0 0.00 0.00 0.00 66 1011.3
20260508051606 50 253 0.0 0.0 0.00 0.00 0.00 66 1011.3
20260508051106 50 252 0.0 0.0 0.00 0.00 0.00 66 1011.3
20260508045605 51 242 0.0 0.0 0.00 0.00 0.00 65 1011.3
20260508045106 51 234 0.0 0.0 0.00 0.00 0.00 65 1011.2
20260508044605 51 238 0.0 0.0 0.00 0.00 0.00 65 1011.1
20260508044105 51 229 0.0 0.0 0.00 0.00 0.00 64 1011.1
20260508043606 51 244 0.0 0.0 0.00 0.00 0.00 64 1011.1
20260508043105 52 247 0.0 0.0 0.00 0.00 0.00 63 1011.0
20260508042605 52 232 0.0 0.0 0.00 0.00 0.00 63 1011.0
20260508042106 52 225 0.0 0.0 0.00 0.00 0.00 63 1011.0
20260508041605 52 232 0.0 0.0 0.00 0.00 0.00 62 1011.0
20260508041105 52 222 0.0 0.0 0.00 0.00 0.00 62 1011.0
20260508040605 52 257 0.0 0.0 0.00 0.00 0.00 62 1011.1
20260508040105 52 250 0.0 0.0 0.00 0.00 0.00 62 1011.0
20260508035606 52 232 0.0 0.0 0.00 0.00 0.00 62 1011.1
20260508035106 52 214 0.0 0.0 0.00 0.00 0.00 61 1011.1
20260508034105 53 198 0.0 0.0 0.00 0.00 0.00 61 1011.2
20260508033605 53 236 0.0 0.0 0.00 0.00 0.00 60 1011.4
20260508033106 53 234 0.0 0.0 0.00 0.00 0.00 59 1011.5
20260508032606 53 239 0.0 0.0 0.00 0.00 0.00 59 1011.5
20260508032106 53 213 0.0 0.0 0.00 0.00 0.00 59 1011.5
20260508031606 53 233 0.0 0.0 0.00 0.00 0.00 58 1011.6
20260508031105 53 269 0.0 0.0 0.00 0.00 0.00 57 1011.6
20260508030605 53 225 0.0 0.0 0.00 0.00 0.00 56 1011.6
20260508030105 53 245 0.0 0.0 0.00 0.00 0.00 55 1011.7
20260508025605 53 241 0.0 0.0 0.00 0.00 0.00 55 1011.6
20260508025105 53 258 0.0 0.0 0.00 0.00 0.00 55 1011.6
20260508024605 53 263 0.0 0.0 0.00 0.00 0.00 54 1011.7
20260508024105 53 263 0.0 0.0 0.00 0.00 0.00 54 1011.8
20260508023105 53 275 0.0 0.0 0.00 0.00 0.00 53 1011.7
20260508022605 53 203 0.0 0.0 0.00 0.00 0.00 53 1011.6
20260508022105 53 212 0.0 0.0 0.00 0.00 0.00 52 1011.6
20260508021605 52 261 0.0 0.0 0.00 0.00 0.00 52 1011.6
20260508021105 52 249 0.0 0.0 0.00 0.00 0.00 54 1011.6
20260508020605 52 258 0.0 0.0 0.00 0.00 0.00 56 1011.6
20260508020106 52 257 0.0 0.0 0.00 0.00 0.00 55 1011.5
20260508015605 52 257 0.0 0.0 0.00 0.00 0.00 55 1011.3
20260508015106 52 257 0.0 0.0 0.00 0.00 0.00 54 1011.2
20260508014105 52 257 0.0 0.0 0.00 0.00 0.00 52 1011.2
20260508013606 53 257 0.0 0.0 0.00 0.00 0.00 51 1011.1
20260508013107 53 257 0.0 0.0 0.00 0.00 0.00 50 1011.0
20260508012605 53 257 0.0 0.0 0.00 0.00 0.00 49 1010.9
20260508012105 53 257 0.0 0.0 0.00 0.00 0.00 49 1010.8
20260508011605 54 257 0.0 0.0 0.00 0.00 0.00 48 1010.7
20260508011105 54 257 0.0 0.0 0.00 0.00 0.00 47 1010.6
20260508010106 55 257 0.0 0.0 0.00 0.00 0.00 45 1010.6
20260508005605 55 257 0.0 0.0 0.00 0.00 0.00 45 1010.7
20260508005105 55 257 0.0 0.0 0.00 0.00 0.00 44 1010.6
20260508004605 55 256 0.0 0.0 0.00 0.00 0.00 44 1010.6
20260508003605 55 256 0.0 0.0 0.00 0.00 0.00 43 1010.5
20260508003105 55 256 0.0 0.0 0.00 0.00 0.00 43 1010.5
20260508002605 56 249 0.0 0.0 0.00 0.00 0.00 43 1010.5
20260508001105 56 274 0.0 0.0 0.00 0.00 0.00 41 1010.5
20260507235105 56 274 0.0 0.0 0.00 0.00 0.00 40 1010.5
20260507234105 57 235 0.0 0.0 0.00 0.00 0.00 39 1010.5
20260507233605 57 271 0.0 0.0 0.00 0.00 0.00 39 1010.5
20260507233106 57 276 0.0 0.0 0.00 0.00 0.00 39 1010.5
20260507232605 57 257 0.0 0.0 0.00 0.00 0.00 38 1010.5
20260507232105 58 263 0.0 0.0 0.00 0.00 0.00 38 1010.5
20260507230605 58 254 0.0 0.0 0.00 0.00 0.00 38 1010.5
20260507230105 58 296 0.0 0.0 0.00 0.00 0.00 38 1010.5
20260507225605 58 249 0.0 0.0 0.00 0.00 0.00 37 1010.6
20260507224605 59 282 0.0 0.0 0.00 0.00 0.00 36 1010.6
20260507224105 59 268 0.0 0.0 0.00 0.00 0.00 37 1010.7
20260507223605 59 286 0.0 0.0 0.00 0.00 0.00 38 1010.8
20260507223105 58 270 0.0 0.0 0.00 0.00 0.00 39 1010.8
20260507222605 58 253 0.0 0.0 0.00 0.00 0.00 37 1010.7
20260507222105 58 266 0.0 0.0 0.00 0.00 0.00 37 1010.8
20260507221605 58 290 0.0 0.0 0.00 0.00 0.00 37 1010.9
20260507221105 58 296 0.0 0.0 0.00 0.00 0.00 38 1010.9
20260507220606 58 260 0.0 0.0 0.00 0.00 0.00 38 1010.9
20260507220105 58 262 0.0 0.0 0.00 0.00 0.00 37 1010.9
20260507215605 58 268 0.0 0.0 0.00 0.00 0.00 37 1010.7
20260507215105 59 298 0.0 0.0 0.00 0.00 0.00 37 1010.8
20260507214105 60 261 0.0 0.0 0.00 0.00 0.00 35 1010.7
20260507213605 60 314 0.0 0.0 0.00 0.00 0.00 35 1010.6
20260507213105 60 312 0.0 0.0 0.00 0.00 0.00 36 1010.6
20260507212105 60 266 0.0 0.0 0.00 0.00 0.00 37 1010.7
20260507211605 59 251 0.0 0.0 0.00 0.00 0.00 37 1010.5
20260507211105 59 266 0.0 0.0 0.00 0.00 0.00 37 1010.8
20260507210605 59 280 0.0 0.0 0.00 0.00 0.00 38 1010.7
20260507210105 59 272 0.0 0.0 0.00 0.00 0.00 36 1010.9
20260507205605 59 277 0.0 0.0 0.00 0.00 0.00 37 1010.8
20260507205105 59 262 0.0 0.0 0.00 0.00 0.00 36 1010.7
20260507203606 58 290 0.0 0.0 0.00 0.00 0.00 37 1010.9
20260507202605 59 297 0.0 0.0 0.00 0.00 0.00 35 1011.0
20260507202105 59 314 0.0 0.0 0.00 0.00 0.00 36 1010.9
20260507201605 59 1 0.0 0.0 0.00 0.00 0.00 36 1010.9
20260507201105 59 284 0.0 0.0 0.00 0.00 0.00 37 1011.0
20260507200605 59 322 0.0 0.0 0.00 0.00 0.00 36 1010.9